When you browse on this site, cookies collect data to enhance your experience and personalize the content and advertising you see.
Visit our Privacy Policy to learn more. By continuing to use the site, you agree to this use of cookies and data.
  • En España
  • Lista de países
  • Para 7 días
  • Temperatura del agua
  • Mapa Satelital
  • El tiempo en el mapa
  • Informadores
  • user-avatar
    Iniciar sesión

    Tiempo cada hora Georgetown

    Hoy, 14 Diciembre, Viernes

    Tiempo Temperatura Precipitaciones Viento Presión Humedad
    00:00 +25°C° 0.2 mm 4 mps 760 mmHg 93%
    01:00 +25°C° 0.2 mm 4 mps 760 mmHg 94%
    02:00 +25°C° 0.2 mm 4 mps 760 mmHg 95%
    03:00 +25°C° 0.2 mm 4 mps 760 mmHg 95%
    04:00 +25°C° 0.2 mm 4 mps 760 mmHg 95%
    05:00 +25°C° 0.2 mm 4 mps 760 mmHg 96%
    06:00 +26°C° 0.1 mm 4 mps 761 mmHg 93%
    07:00 +27°C° 0.1 mm 4 mps 761 mmHg 91%
    08:00 +28°C° 0.1 mm 4 mps 761 mmHg 88%
    09:00 +29°C° 0.4 mm 4 mps 762 mmHg 83%
    10:00 +29°C° 0.4 mm 5 mps 762 mmHg 78%
    11:00 +30°C° 0.4 mm 5 mps 762 mmHg 72%
    12:00 +30°C° 0.3 mm 5 mps 762 mmHg 72%
    13:00 +30°C° 0.3 mm 5 mps 761 mmHg 71%
    14:00 +30°C° 0.3 mm 5 mps 761 mmHg 71%
    15:00 +30°C° 0 mm 5 mps 760 mmHg 73%
    16:00 +29°C° 0 mm 5 mps 760 mmHg 74%
    17:00 +28°C° 0 mm 5 mps 760 mmHg 76%
    18:00 +28°C° 0 mm 5 mps 760 mmHg 79%
    19:00 +27°C° 0 mm 5 mps 761 mmHg 82%
    20:00 +26°C° 0 mm 4 mps 761 mmHg 85%
    21:00 +26°C° 0 mm 4 mps 761 mmHg 86%
    22:00 +26°C° 0 mm 4 mps 761 mmHg 87%
    23:00 +25°C° 0 mm 4 mps 762 mmHg 88%

    Mañana, 15 Diciembre, Sábado

    Tiempo Temperatura Precipitaciones Viento Presión Humedad
    00:00 +25°C° 0 mm 4 mps 761 mmHg 88%
    01:00 +25°C° 0 mm 4 mps 761 mmHg 88%
    02:00 +25°C° 0 mm 3 mps 761 mmHg 88%
    03:00 +25°C° 0.1 mm 3 mps 761 mmHg 90%
    04:00 +25°C° 0.1 mm 3 mps 761 mmHg 92%
    05:00 +24°C° 0.1 mm 3 mps 761 mmHg 93%
    06:00 +25°C° 0.2 mm 3 mps 761 mmHg 91%
    07:00 +26°C° 0.2 mm 3 mps 762 mmHg 89%
    08:00 +27°C° 0.2 mm 3 mps 762 mmHg 86%
    09:00 +29°C° 0.3 mm 3 mps 762 mmHg 79%
    10:00 +30°C° 0.3 mm 4 mps 763 mmHg 72%
    11:00 +32°C° 0.3 mm 4 mps 763 mmHg 65%
    12:00 +32°C° 0.1 mm 4 mps 762 mmHg 63%
    13:00 +32°C° 0.1 mm 4 mps 761 mmHg 60%
    14:00 +31°C° 0.1 mm 3 mps 760 mmHg 58%
    15:00 +30°C° 0 mm 3 mps 760 mmHg 63%
    16:00 +29°C° 0 mm 3 mps 760 mmHg 68%
    17:00 +28°C° 0 mm 3 mps 760 mmHg 72%
    18:00 +27°C° 0 mm 3 mps 760 mmHg 78%
    19:00 +26°C° 0 mm 3 mps 761 mmHg 84%
    20:00 +25°C° 0 mm 3 mps 761 mmHg 90%
    21:00 +25°C° 0 mm 3 mps 761 mmHg 91%
    22:00 +25°C° 0 mm 3 mps 762 mmHg 92%
    23:00 +24°C° 0 mm 3 mps 762 mmHg 92%

    Pasado mañana, 16 Diciembre, Domingo

    Tiempo Temperatura Precipitaciones Viento Presión Humedad
    00:00 +24°C° 0 mm 3 mps 761 mmHg 93%
    01:00 +24°C° 0 mm 3 mps 761 mmHg 94%
    02:00 +24°C° 0 mm 2 mps 761 mmHg 95%
    03:00 +24°C° 0.1 mm 2 mps 761 mmHg 96%
    04:00 +24°C° 0.1 mm 2 mps 760 mmHg 96%
    05:00 +24°C° 0.1 mm 2 mps 760 mmHg 97%
    06:00 +25°C° 0.1 mm 2 mps 761 mmHg 92%
    07:00 +26°C° 0.1 mm 2 mps 762 mmHg 88%
    08:00 +27°C° 0.1 mm 2 mps 762 mmHg 84%
    09:00 +28°C° 0.2 mm 3 mps 762 mmHg 78%
    10:00 +30°C° 0.2 mm 3 mps 762 mmHg 73%
    11:00 +31°C° 0.2 mm 3 mps 763 mmHg 67%
    12:00 +31°C° 0.1 mm 3 mps 762 mmHg 64%
    13:00 +33°C° 0.1 mm 3 mps 761 mmHg 61%
    14:00 +33°C° 0.1 mm 3 mps 760 mmHg 58%
    15:00 +31°C° 0 mm 3 mps 759 mmHg 63%
    16:00 +30°C° 0 mm 3 mps 759 mmHg 68%
    17:00 +29°C° 0 mm 4 mps 759 mmHg 73%
    18:00 +28°C° 0 mm 3 mps 759 mmHg 79%
    19:00 +26°C° 0 mm 3 mps 760 mmHg 84%
    20:00 +25°C° 0 mm 3 mps 760 mmHg 89%
    21:00 +25°C° 0 mm 3 mps 760 mmHg 90%
    22:00 +25°C° 0 mm 3 mps 761 mmHg 91%
    23:00 +25°C° 0 mm 3 mps 761 mmHg 91%

    17 Diciembre, Lunes

    Tiempo Temperatura Precipitaciones Viento Presión Humedad
    00:00 +25°C° 0 mm 3 mps 760 mmHg 92%
    01:00 +25°C° 0 mm 3 mps 760 mmHg 93%
    02:00 +24°C° 0 mm 2 mps 759 mmHg 94%
    03:00 +24°C° 0 mm 2 mps 760 mmHg 94%
    04:00 +24°C° 0 mm 2 mps 760 mmHg 95%
    05:00 +24°C° 0 mm 2 mps 760 mmHg 95%
    06:00 +25°C° 0 mm 2 mps 760 mmHg 90%
    07:00 +27°C° 0 mm 2 mps 761 mmHg 85%
    08:00 +28°C° 0 mm 2 mps 761 mmHg 80%
    09:00 +29°C° 0.2 mm 2 mps 762 mmHg 75%
    10:00 +30°C° 0.2 mm 3 mps 762 mmHg 69%
    11:00 +31°C° 0.2 mm 3 mps 762 mmHg 63%
    12:00 +31°C° 0.1 mm 3 mps 761 mmHg 63%
    13:00 +31°C° 0.1 mm 3 mps 760 mmHg 63%
    14:00 +31°C° 0.1 mm 3 mps 759 mmHg 63%
    15:00 +30°C° 0 mm 3 mps 759 mmHg 67%
    16:00 +30°C° 0 mm 3 mps 758 mmHg 70%
    17:00 +29°C° 0 mm 3 mps 758 mmHg 73%
    18:00 +28°C° 0 mm 3 mps 759 mmHg 78%
    19:00 +26°C° 0 mm 3 mps 759 mmHg 84%
    20:00 +25°C° 0 mm 3 mps 760 mmHg 90%
    21:00 +25°C° 0 mm 3 mps 760 mmHg 90%
    22:00 +25°C° 0 mm 3 mps 760 mmHg 91%
    23:00 +25°C° 0 mm 3 mps 760 mmHg 91%

    18 Diciembre, Martes

    Tiempo Temperatura Precipitaciones Viento Presión Humedad
    00:00 +25°C° 0 mm 3 mps 760 mmHg 92%
    01:00 +24°C° 0 mm 3 mps 760 mmHg 93%
    02:00 +24°C° 0 mm 3 mps 759 mmHg 93%
    03:00 +24°C° 0 mm 2 mps 759 mmHg 94%
    04:00 +24°C° 0 mm 2 mps 759 mmHg 94%
    05:00 +24°C° 0 mm 2 mps 759 mmHg 95%
    06:00 +26°C° 0.1 mm 2 mps 760 mmHg 89%
    07:00 +27°C° 0.1 mm 2 mps 760 mmHg 83%
    08:00 +28°C° 0.1 mm 2 mps 761 mmHg 77%
    09:00 +29°C° 0.2 mm 2 mps 761 mmHg 75%
    10:00 +30°C° 0.2 mm 2 mps 761 mmHg 74%
    11:00 +31°C° 0.2 mm 3 mps 761 mmHg 72%
    12:00 +30°C° 0.8 mm 3 mps 760 mmHg 75%
    13:00 +30°C° 0.8 mm 3 mps 759 mmHg 78%
    14:00 +30°C° 0.8 mm 3 mps 758 mmHg 81%
    15:00 +29°C° 0.4 mm 3 mps 758 mmHg 82%
    16:00 +28°C° 0.4 mm 3 mps 758 mmHg 84%
    17:00 +28°C° 0.4 mm 3 mps 758 mmHg 86%
    18:00 +27°C° 0.1 mm 3 mps 759 mmHg 88%
    19:00 +27°C° 0.1 mm 3 mps 759 mmHg 90%
    20:00 +26°C° 0.1 mm 3 mps 760 mmHg 93%
    21:00 +26°C° 0.3 mm 3 mps 760 mmHg 94%
    22:00 +26°C° 0.3 mm 3 mps 760 mmHg 94%
    23:00 +25°C° 0.3 mm 3 mps 760 mmHg 95%

    19 Diciembre, Miércoles

    Tiempo Temperatura Precipitaciones Viento Presión Humedad
    00:00 +25°C° 1 mm 3 mps 760 mmHg 96%
    01:00 +25°C° 1 mm 3 mps 759 mmHg 97%
    02:00 +25°C° 1 mm 3 mps 759 mmHg 97%
    03:00 +25°C° 1.3 mm 3 mps 759 mmHg 98%
    04:00 +25°C° 1.3 mm 3 mps 759 mmHg 98%
    05:00 +25°C° 1.3 mm 3 mps 759 mmHg 98%
    06:00 +26°C° 0.9 mm 3 mps 760 mmHg 96%
    07:00 +26°C° 0.9 mm 3 mps 760 mmHg 94%
    08:00 +27°C° 0.9 mm 4 mps 761 mmHg 92%
    09:00 +28°C° 0.5 mm 4 mps 761 mmHg 88%
    10:00 +29°C° 0.5 mm 4 mps 761 mmHg 84%
    11:00 +30°C° 0.5 mm 4 mps 761 mmHg 80%
    12:00 +30°C° 0.3 mm 4 mps 760 mmHg 76%
    13:00 +32°C° 0.3 mm 4 mps 759 mmHg 73%
    14:00 +32°C° 0.3 mm 4 mps 758 mmHg 69%
    15:00 +32°C° 0.1 mm 4 mps 758 mmHg 73%
    16:00 +30°C° 0.1 mm 4 mps 758 mmHg 76%
    17:00 +29°C° 0.1 mm 4 mps 758 mmHg 79%
    18:00 +28°C° 0 mm 4 mps 759 mmHg 83%
    19:00 +27°C° 0 mm 4 mps 759 mmHg 87%
    20:00 +26°C° 0 mm 4 mps 759 mmHg 91%
    21:00 +26°C° 0.1 mm 4 mps 759 mmHg 91%
    22:00 +26°C° 0.1 mm 4 mps 760 mmHg 92%
    23:00 +26°C° 0.1 mm 4 mps 760 mmHg 93%
    Mostrar más